Location: Unspecified
(0.0000°N, 0.0000°E)
Time: 06:00:36
(UTC+02:00)

PROBA 2 - Visible Passes

Search period start: 01 October 2014 00:00
Search period end: 11 October 2014 00:00
Orbit: 707 x 727 km, 98.3° (Epoch: 30 September)

Date Brightness Start Highest point End Pass type
(mag) Time Alt. Az. Time Alt. Az. Time Alt. Az.
01 Oct ? 21:32:03 10° WNW 21:32:57 11° WNW 21:33:50 10° W visible
02 Oct ? 20:37:44 10° N 20:42:19 50° WNW 20:46:57 10° SSW visible
03 Oct ? 07:25:04 10° ESE 07:28:14 17° ENE 07:31:23 10° NE visible
03 Oct ? 21:27:41 10° NW 21:29:26 12° WNW 21:31:11 10° W visible
04 Oct ? 20:34:09 10° N 20:38:48 56° WNW 20:43:30 10° SSW visible
05 Oct ? 07:21:52 10° ESE 07:24:44 16° ENE 07:27:34 10° NE visible
05 Oct ? 21:23:39 10° NW 21:25:55 13° WNW 21:28:12 10° WSW visible
06 Oct ? 20:30:35 10° N 20:35:17 62° WNW 20:40:02 10° SSW visible
07 Oct ? 07:18:44 10° ESE 07:21:13 14° ENE 07:23:41 10° NE visible
07 Oct ? 21:19:44 10° NW 21:22:24 15° WNW 21:25:06 10° WSW visible
08 Oct ? 20:27:01 10° N 20:31:45 70° WNW 20:36:33 10° SSW visible
09 Oct ? 07:15:42 10° ESE 07:17:42 12° ENE 07:19:42 10° NE visible
09 Oct ? 21:15:52 10° NW 21:18:53 17° WNW 21:21:55 10° WSW visible
10 Oct ? 20:23:28 10° N 20:28:14 78° WNW 20:33:03 10° SSW visible
